Tracking 19644 objects as of 24-Apr-2019
HD Live streaming from Space Station
objects crossing your sky now

THORAD DELTA 1 DEB

Track THORAD DELTA 1 DEB now!
10-day predictions


NORAD ID: 8141
Int'l Code: 1974-089K
Perigee: 1,459.9 km
Apogee: 1,600.3 km
Inclination: 101.5 °
Period: 116.5 minutes
Semi major axis: 7901 km
RCS: 0.0788 m2 (small)
Launch date: November 15, 1974
Source: United States (US)
Launch site: AIR FORCE WESTERN TEST RANGE (AFWTR)

Note: This is SATELLITE DEBRIS
aabbcc
Your satellite tracking list
Your tracking list is empty




NASA's NSSDC Master Catalog

Two Line Element Set (TLE):
1  8141U 74089K   19113.45164194 -.00000007 +00000-0 +26865-3 0  9999
2  8141 101.5138 056.0976 0088827 326.8866 144.8463 12.36153387004722
Source of the keplerian elements: AFSPC